Other Public Products
Issued by NWS Grand Forks, ND

Home | Current Version | Previous Version | Graphics & Text | Print | Product List | Glossary On
Versions: 1 2 3 4 5 6 7 8 9 10 11 12 13 14 15 16 17 18 19 20 21 22 23 24 25 26 27 28 29 30 31 32 33 34 35 36 37 38 39 40 41 42 43 44 45 46 47 48 49 50
000
FPUS83 KFGF 201210
OPUFGF
PRAIRIE TO PINES WEATHER ROUNDUP
NATIONAL WEATHER SERVICE EASTERN NORTH DAKOTA/GRAND FORKS ND
700 AM CDT SAT SEP 20 2014

 **SATELLITE DATA USED TO AUGMENT SKY COVER AT AUTOMATED STATIONS**
 *****  WEATHER ACROSS EASTERN NORTH DAKOTA  *****

CITY           SKY/WX    TMP DP  RH WIND       PRES   REMARKS
GRAND FORKS    CLOUDY    51  50  96 SW5       29.79R
6HR MIN TEMP:  49; 6HR MAX TEMP:  60;

GRAND FORKS AF CLOUDY    50  50 100 SW3       29.80R
GRAND CITY NWS   N/A     48 N/A N/A MISG        N/A
BUXTON         NOT AVBL
DEVILS LAKE    CLEAR     54  48  82 W9        29.78R
6HR MIN TEMP:  52; 6HR MAX TEMP:  57;

FARGO          PTCLDY    51  50  96 SW3       29.81R
6HR MIN TEMP:  50; 6HR MAX TEMP:  61;

WAHPETON ARPT    N/A     46  45  93 W5        29.83R VSB 1
$$

 *****  WEATHER ACROSS CENTRAL AND WESTERN NORTH DAKOTA  *****

CITY           SKY/WX    TMP DP  RH WIND       PRES   REMARKS
JAMESTOWN      CLEAR     52  51  97 W6        29.82S
6HR MIN TEMP:  52; 6HR MAX TEMP:  59;

BISMARCK       PTCLDY    53  50  89 W3        29.87R
6HR MIN TEMP:  51; 6HR MAX TEMP:  60;

MINOT          PTCLDY    56  51  84 SW14      29.80S
6HR MIN TEMP:  52; 6HR MAX TEMP:  57;

MINOT AFB      MOCLDY    55  55  98 W10       29.80R
6HR MIN TEMP:  50; 6HR MAX TEMP:  55;

GARRISON         N/A     54  52  93 W3        29.84S
6HR MIN TEMP:  50; 6HR MAX TEMP:  56;

WILLISTON      CLOUDY    54  51  90 SW9       29.85S
6HR MIN TEMP:  47; 6HR MAX TEMP:  55; 6HR PCP: TRACE;

DICKINSON      PTCLDY    53  47  79 W10       29.89S
6HR MIN TEMP:  50; 6HR MAX TEMP:  55;

HETTINGER      CLEAR     52  46  80 W9        29.94F
6HR MIN TEMP:  49; 6HR MAX TEMP:  54;

$$

 *****  OTHER OBSERVATIONS NORTHEAST NORTH DAKOTA  *****

CITY           SKY/WX    TMP DP  RH WIND       PRES   REMARKS
WALHALLA       CLOUDY    54  54 100 W5        29.77S
LANGDON        FOG       45  45 100 CALM      29.77S VSB<1/4
CAVALIER       CLOUDY    54  54 100 W3        29.77S FOG
GRAFTON        FOG       50  50 100 NW6       29.77S VSB 1/2
CANDO          FAIR      46  46 100 W6        29.79S FOG
FORT TOTTEN      N/A     53  53  99 SW2       29.95S
ROLLA          FAIR      50  50 100 SW9       29.78S
RUGBY          FAIR      46  46 100 SW7       29.80S
 ***** THE ABOVE OBSERVATIONS ARE NON NWS ARE NOT QUALITY
        CONTROLLED AND MAY MIS-REPORT RAIN FOR SNOW...
$$

 *****  OTHER OBSERVATIONS SOUTHEAST NORTH DAKOTA *****

CITY           SKY/WX    TMP DP  RH WIND       PRES   REMARKS
COOPERSTOWN    NOT AVBL
VALLEY CITY    FAIR      54  54 100 W7        29.82S
OAKES            N/A     54  54 100 SW6       29.84S
GWINNER        SUNNY     54  54 100 W5        29.84F
SHEYENNE NWR     N/A     48  47  98 SW2       29.95S
BUFFALO        NOT AVBL
WYNDMERE         N/A     50  52 100 W3          N/A
 ***** THE ABOVE OBSERVATIONS ARE NON NWS ARE NOT QUALITY
       CONTROLLED AND MAY MIS-REPORT RAIN FOR SNOW...
$$

  *****  WEATHER ACROSS NORTHERN MINNESOTA  *****

CITY           SKY/WX    TMP DP  RH WIND       PRES   REMARKS
FLAG ISLAND    CLOUDY    52  48  87 W14       29.71R
WARROAD        CLEAR     48  45  87 W6        29.75R
ROSEAU         CLEAR     48  45  87 W6        29.76R
HALLOCK        CLEAR     52  50  93 NW3       29.77R
THF RVR FALLS  CLOUDY    54  52  94 W7        29.79R
6HR MIN TEMP:  54; 6HR MAX TEMP:  61;

HALSTAD          N/A     46  45  94 SW3         N/A
FOSSTON        CLOUDY    54  52  94 W7        29.80R
BAUDETTE       CLOUDY    51  48  89 NW7       29.71S
6HR MIN TEMP:  51; 6HR MAX TEMP:  59;

WASKISH        CLOUDY    54  52  94 W8        29.74R
CROOKSTON      CLOUDY    54  52  94 W5        29.81R
$$
  *****  WEATHER ACROSS CENTRAL AND WEST MINNESOTA  *****

CITY           SKY/WX    TMP DP  RH WIND       PRES   REMARKS
BEMIDJI        CLOUDY    54  52  92 NW8       29.77R
PARK RAPIDS    MOCLDY    55  52  89 NW7       29.78S
6HR MIN TEMP:  53; 6HR MAX TEMP:  64;

WADENA         CLEAR     55  54  94 NW6       29.78S
DETROIT LAKES  CLOUDY    55  54  94 NW3       29.81S
MOORHEAD       CLOUDY    54  54 100 CALM      29.82R
FERGUS FALLS   MOCLDY    55  54  94 NW5       29.82S
ELBOW LAKE     CLOUDY    56  55  94 NW7       29.82R
6HR MIN TEMP:  56; 6HR MAX TEMP:  64;

MORRIS MN      CLOUDY    57  55  94 NW8       29.82R FOG
STAPLES        MOCLDY    55  55 100 W7        29.77S
WHEATON        CLEAR     54  52  94 W6        29.85R
$$
  *****  WEATHER ELSEWHERE ACROSS MINNESOTA  *****

CITY           SKY/WX    TMP DP  RH WIND       PRES   REMARKS
DULUTH         CLOUDY    62  57  83 NW16G24   29.65R
6HR MIN TEMP:  62; 6HR MAX TEMP:  64;

INTRNTL FALLS  CLOUDY    54  53  97 W12G18    29.68R FOG
6HR MIN TEMP:  54; 6HR MAX TEMP:  60; 6HR PCP:  0.01;

ELY            CLOUDY    59  57  94 W9        29.63R
CLOQUET        CLOUDY    61  57  88 W9G20     29.68R
BRAINERD       CLEAR     57  55  93 NW9       29.76R
6HR MIN TEMP:  57; 6HR MAX TEMP:  62;

HIBBING        CLOUDY    59  54  83 NW18      29.68R
6HR MIN TEMP:  59; 6HR MAX TEMP:  65;

ALEXANDRIA     MOCLDY    57  56  96 W10       29.81R FOG
6HR MIN TEMP:  56; 6HR MAX TEMP:  65;

SAINT CLOUD    CLEAR     60  57  89 NW8       29.76R
6HR MIN TEMP:  60; 6HR MAX TEMP:  67;

MINNEAPOLIS    MOCLDY    66  62  87 W10       29.75R
6HR MIN TEMP:  66; 6HR MAX TEMP:  73;

$$

  *****  WEATHER ACROSS SOUTH DAKOTA  *****

CITY           SKY/WX    TMP DP  RH WIND       PRES   REMARKS
SIOUX FALLS    CLOUDY    64  58  80 W3        29.89R
6HR MIN TEMP:  63; 6HR MAX TEMP:  69; 6HR PCP:  0.01;

BROOKINGS      NOT AVBL
WATERTOWN      CLEAR     55  53  93 NW3       29.86S
6HR MIN TEMP:  53; 6HR MAX TEMP:  65;

HURON          CLEAR     53  50  89 W6        29.89R
6HR MIN TEMP:  53; 6HR MAX TEMP:  65;

SISSETON         N/A     55  54  96 NW5       29.83R
ABERDEEN       PTCLDY    55  52  89 W7        29.87R
6HR MIN TEMP:  52; 6HR MAX TEMP:  66;

MITCHELL       MOCLDY    60  57  89 SW3       29.90R
PIERRE         CLEAR     56  51  84 SW8       29.91S
6HR MIN TEMP:  55; 6HR MAX TEMP:  71; 6HR PCP:  0.01;

MOBRIDGE       CLEAR     49  48  97 CALM      29.88S
RAPID CITY     PTCLDY    53  45  74 NW6       30.05R
6HR MIN TEMP:  53; 6HR MAX TEMP:  66; 6HR PCP: TRACE;

$$

  *****  SOME WEATHER IN NEARBY STATES *****

CITY           SKY/WX    TMP DP  RH WIND       PRES   REMARKS
GLASGOW MT     CLEAR     51  44  77 N10       29.99R
6HR MIN TEMP:  51; 6HR MAX TEMP:  60; 6HR PCP: TRACE;

GREAT FALLS MT CLEAR     50  41  71 SW12      30.15R
6HR MIN TEMP:  48; 6HR MAX TEMP:  55;

CHEYENNE WY    CLEAR     54  43  66 NW6       30.23R
6HR MIN TEMP:  54; 6HR MAX TEMP:  62;

SCOTTSBLUFF NE CLEAR     53  48  83 NW7       30.12R
6HR MIN TEMP:  53; 6HR MAX TEMP:  65;

OMAHA NE       CLOUDY    70  66  87 S6        29.89R
6HR MIN TEMP:  70; 6HR MAX TEMP:  74; 6HR PCP:  0.27;

DES MOINES IA  TSTM      69  64  84 SW23G32   29.87F
6HR MIN TEMP:  69; 6HR MAX TEMP:  73; 6HR PCP:  0.05;

DAVENPORT IA   CLOUDY    63  60  90 SW9       29.90F FOG
6HR MIN TEMP:  63; 6HR MAX TEMP:  66; 6HR PCP:  0.01;

CHICAGO IL     MOCLDY    63  54  72 SW14      29.93S
6HR MIN TEMP:  63; 6HR MAX TEMP:  65;

EAU CLAIRE WI  MOCLDY    66  62  87 SW8       29.71R
6HR MIN TEMP:  66; 6HR MAX TEMP:  69;

LA CROSSE WI   CLOUDY    65  62  90 VRB3      29.76R
6HR MIN TEMP:  65; 6HR MAX TEMP:  69; 6HR PCP:  0.32;

$$

  *****  SOME NATIONAL WEATHER *****

CITY           SKY/WX    TMP DP  RH WIND       PRES   REMARKS


USA.gov is the U.S. government's official web portal to all federal, state and local government web resources and services.